Temp
-9 -9 -9 -9 -9 -9 -9 -9 -9 -9 -9 -9 -10 -10 -9 -10 -10 -10 -10 -10 -9 -10 -10 -11 -11 -12 -11 -11 -10 -10 -10 -9 -9 -10 -10 -10 -10 -10 -10 -10 -10 -10 -10 -10 -10 -10 -10 -10 -10
-9 -9 -9 -9 -9 -9 -9 -9 -9 -9 -9 -9 -10 -10 -10 -10 -10 -10 -10 -9 -10 -10 -10 -10 -11 -12 -11 -11 -10 -10 -10 -10 -10 -10 -10 -10 -10 -10 -10 -10 -10 -10 -10 -10 -11 -11 -11 -11 -11
-9 -9 -9 -9 -9 -9 -9 -10 -9 -9 -9 -10 -9 -10 -10 -10 -11 -11 -10 -9 -10 -10 -10 -11 -11 -11 -11 -11 -10 -10 -10 -10 -10 -10 -10 -10 -10 -10 -10 -10 -10 -11 -11 -11 -10 -10 -10 -10 -11
-9 -9 -9 -9 -9 -9 -9 -10 -10 -9 -10 -10 -9 -10 -10 -10 -11 -10 -10 -10 -10 -10 -10 -10 -11 -11 -11 -10 -11 -11 -10 -11 -10 -10 -10 -10 -10 -10 -10 -10 -11 -10 -10 -10 -10 -10 -11 -11 -11
-9 -9 -9 -9 -9 -9 -10 -10 -10 -10 -10 -10 -10 -10 -10 -10 -10 -11 -10 -10 -10 -10 -10 -10 -10 -10 -10 -11 -11 -10 -11 -11 -11 -11 -10 -10 -10 -10 -10 -10 -10 -10 -10 -10 -11 -11 -11 -11 -11
-9 -8 -9 -9 -10 -10 -10 -10 -10 -10 -10 -10 -10 -10 -10 -10 -10 -10 -11 -10 -10 -10 -10 -10 -10 -10 -10 -10 -10 -10 -10 -10 -10 -10 -10 -10 -10 -10 -10 -10 -10 -10 -11 -11 -11 -11 -11 -11 -11
-9 -9 -9 -10 -10 -10 -10 -10 -10 -10 -10 -10 -10 -10 -10 -10 -10 -10 -11 -11 -10 -10 -10 -10 -10 -10 -10 -10 -10 -10 -10 -10 -10 -10 -10 -10 -10 -10 -10 -10 -10 -10 -11 -11 -11 -11 -11 -11 -11
-9 -9 -9 -10 -10 -10 -10 -10 -10 -10 -10 -10 -10 -10 -10 -10 -10 -10 -10 -10 -10 -10 -10 -10 -11 -11 -10 -10 -10 -10 -10 -10 -10 -10 -10 -10 -10 -10 -11 -11 -11 -11 -11 -11 -11 -11 -11 -11 -11
-10 -9 -9 -10 -10 -10 -10 -10 -10 -10 -10 -10 -10 -10 -10 -10 -10 -10 -10 -10 -10 -10 -10 -10 -10 -10 -10 -10 -10 -10 -10 -10 -10 -10 -10 -10 -10 -10 -10 -11 -11 -11 -11 -11 -11 -11 -11 -11 -11
-10 -9 -9 -10 -10 -10 -10 -10 -10 -10 -10 -10 -10 -10 -10 -10 -10 -10 -10 -10 -10 -10 -10 -10 -10 -10 -10 -10 -10 -10 -10 -10 -10 -10 -10 -10 -10 -10 -10 -10 -11 -11 -11 -11 -11 -11 -11 -12 -12
-10 -10 -10 -10 -10 -10 -10 -10 -10 -10 -10 -10 -10 -10 -10 -10 -10 -10 -10 -10 -10 -10 -10 -10 -10 -10 -10 -10 -10 -10 -10 -10 -10 -10 -10 -10 -10 -10 -10 -10 -11 -11 -11 -11 -11 -11 -11 -11 -11
-10 -10 -10 -10 -10 -10 -10 -10 -10 -10 -10 -10 -10 -10 -10 -10 -10 -10 -10 -10 -10 -10 -10 -10 -10 -10 -10 -10 -10 -10 -10 -10 -10 -10 -11 -11 -10 -11 -11 -11 -11 -11 -11 -11 -11 -11 -11 -11 -11
-10 -10 -10 -10 -10 -10 -10 -10 -10 -10 -10 -10 -10 -10 -10 -10 -10 -10 -10 -10 -10 -10 -10 -10 -10 -10 -10 -10 -10 -10 -10 -10 -10 -10 -11 -11 -11 -11 -11 -11 -11 -11 -11 -11 -11 -11 -11 -11 -11
-11 -10 -10 -10 -10 -10 -10 -10 -10 -10 -10 -10 -10 -10 -10 -10 -10 -10 -10 -10 -10 -10 -10 -10 -10 -10 -10 -10 -10 -10 -10 -10 -10 -11 -11 -11 -11 -11 -11 -11 -11 -11 -11 -11 -11 -11 -11 -11 -11
-11 -11 -10 -10 -11 -10 -10 -10 -10 -10 -10 -10 -10 -10 -10 -10 -10 -10 -10 -10 -10 -10 -10 -10 -10 -10 -10 -10 -10 -10 -10 -10 -10 -11 -11 -11 -11 -11 -11 -11 -11 -11 -11 -11 -11 -11 -11 -11 -11
-11 -11 -11 -10 -11 -11 -11 -11 -10 -10 -10 -10 -10 -10 -10 -10 -10 -10 -10 -10 -10 -10 -10 -10 -10 -10 -10 -10 -10 -10 -10 -11 -11 -11 -11 -11 -11 -11 -11 -11 -11 -11 -11 -11 -11 -11 -11 -11 -11
-11 -11 -11 -11 -11 -11 -10 -11 -10 -11 -10 -11 -10 -10 -10 -10 -10 -10 -10 -10 -10 -10 -11 -11 -11 -11 -11 -11 -11 -11 -11 -11 -11 -11 -11 -11 -11 -11 -11 -11 -11 -11 -11 -11 -11 -11 -11 -11 -11
-11 -11 -11 -11 -11 -11 -11 -11 -11 -11 -11 -11 -11 -10 -10 -10 -10 -10 -10 -10 -10 -10 -10 -11 -11 -11 -11 -11 -11 -11 -11 -11 -11 -11 -11 -11 -11 -11 -11 -11 -11 -11 -11 -11 -11 -11 -12 -12 -12
-11 -11 -11 -11 -11 -11 -11 -11 -11 -10 -10 -11 -10 -10 -10 -10 -10 -10 -10 -10 -11 -11 -10 -11 -11 -11 -11 -11 -11 -11 -11 -11 -11 -11 -11 -11 -11 -11 -11 -11 -11 -11 -11 -12 -12 -12 -12 -12 -12
-12 -12 -12 -11 -11 -11 -11 -11 -11 -10 -10 -10 -10 -10 -10 -10 -10 -10 -11 -11 -11 -11 -11 -11 -11 -11 -11 -11 -11 -11 -11 -11 -12 -12 -12 -11 -11 -12 -12 -12 -12 -12 -12 -12 -12 -12 -12 -12 -12
-12 -12 -11 -11 -11 -11 -11 -11 -11 -10 -10 -10 -10 -10 -10 -10 -10 -10 -10 -11 -11 -11 -11 -11 -11 -11 -11 -11 -11 -11 -12 -12 -12 -12 -12 -12 -12 -12 -12 -12 -12 -12 -12 -12 -12 -12 -12 -12 -12
-13 -13 -12 -12 -12 -12 -11 -11 -11 -10 -10 -10 -10 -10 -10 -10 -10 -11 -11 -11 -11 -11 -11 -11 -11 -11 -11 -11 -11 -12 -12 -12 -12 -12 -12 -12 -12 -12 -12 -12 -12 -12 -12 -12 -12 -12 -12 -12 -12
-13 -13 -13 -12 -12 -12 -11 -11 -11 -11 -10 -10 -10 -10 -10 -10 -10 -11 -11 -11 -11 -11 -11 -11 -11 -11 -11 -11 -11 -12 -12 -12 -12 -12 -12 -12 -12 -12 -12 -12 -12 -12 -12 -12 -12 -12 -12 -12 -12
-13 -13 -13 -13 -13 -12 -11 -12 -11 -10 -11 -11 -11 -10 -11 -10 -11 -11 -11 -11 -11 -11 -11 -11 -11 -11 -11 -12 -12 -12 -12 -12 -12 -12 -12 -12 -12 -12 -12 -12 -12 -12 -12 -12 -12 -12 -12 -13 -13
-13 -13 -13 -13 -13 -12 -12 -12 -11 -10 -11 -11 -11 -11 -11 -11 -11 -11 -11 -11 -11 -11 -11 -11 -11 -11 -12 -12 -12 -12 -12 -12 -12 -12 -12 -12 -12 -12 -12 -13 -13 -13 -13 -13 -13 -13 -13 -13 -13
-13 -14 -13 -13 -13 -12 -12 -12 -11 -11 -11 -11 -11 -11 -11 -11 -11 -11 -11 -11 -11 -11 -11 -11 -11 -11 -12 -12 -12 -12 -12 -12 -12 -12 -12 -12 -12 -13 -13 -13 -13 -13 -13 -13 -13 -13 -14 -14 -14
-14 -14 -14 -14 -13 -13 -13 -12 -11 -11 -11 -11 -11 -12 -12 -11 -12 -12 -12 -11 -11 -11 -11 -11 -12 -12 -12 -12 -12 -12 -12 -12 -12 -12 -12 -13 -13 -13 -13 -13 -13 -13 -14 -14 -14 -14 -14 -14 -15
-14 -15 -15 -14 -14 -13 -13 -12 -12 -12 -12 -12 -12 -12 -12 -12 -12 -12 -12 -12 -12 -12 -12 -12 -12 -12 -12 -12 -12 -12 -13 -13 -13 -13 -13 -13 -13 -13 -13 -14 -14 -14 -14 -14 -15 -15 -15 -16 -16
-15 -15 -15 -15 -15 -14 -13 -13 -12 -12 -12 -12 -12 -12 -12 -12 -12 -12 -12 -12 -13 -13 -13 -13 -13 -13 -13 -13 -13 -13 -13 -13 -13 -13 -14 -14 -14 -14 -14 -15 -15 -15 -15 -16 -16 -16 -16 -16 -16
-16 -16 -16 -16 -14 -14 -14 -13 -13 -13 -13 -13 -13 -13 -13 -13 -13 -13 -13 -13 -13 -13 -13 -13 -13 -13 -13 -13 -13 -13 -13 -14 -14 -14 -14 -14 -15 -15 -15 -15 -15 -16 -16 -16 -16 -16 -16 -16 -15
Height
5843 5846 5848 5850 5854 5854 5853 5856 5855 5855 5855 5853 5852 5851 5850 5850 5851 5852 5850 5848 5846 5844 5843 5845 5846 5850 5852 5854 5857 5858 5859 5860 5861 5862 5864 5865 5867 5869 5869 5869 5870 5870 5870 5869 5869 5869 5868 5868 5867
5843 5846 5848 5850 5853 5854 5855 5856 5855 5855 5855 5853 5851 5851 5851 5851 5851 5850 5851 5848 5845 5845 5846 5847 5848 5851 5854 5856 5857 5858 5859 5861 5862 5862 5865 5866 5867 5869 5869 5869 5870 5869 5870 5869 5869 5868 5868 5867 5866
5842 5845 5848 5849 5851 5853 5855 5856 5856 5856 5855 5854 5853 5853 5854 5853 5854 5851 5851 5850 5848 5848 5849 5850 5851 5853 5855 5857 5858 5858 5859 5861 5863 5863 5865 5867 5868 5868 5869 5869 5869 5869 5869 5869 5869 5869 5868 5867 5867
5840 5845 5848 5849 5850 5853 5854 5855 5856 5856 5856 5855 5855 5855 5857 5857 5857 5855 5852 5852 5852 5851 5852 5853 5855 5856 5857 5858 5858 5858 5860 5863 5864 5865 5866 5867 5868 5869 5869 5869 5869 5870 5870 5869 5869 5869 5867 5868 5867
5840 5843 5846 5848 5850 5852 5853 5855 5856 5857 5857 5857 5857 5857 5858 5859 5859 5857 5857 5853 5855 5854 5854 5855 5857 5857 5858 5859 5860 5860 5862 5864 5865 5866 5867 5867 5868 5869 5869 5870 5870 5869 5869 5869 5869 5868 5868 5867 5866
5839 5842 5845 5846 5849 5851 5853 5854 5856 5857 5857 5858 5859 5859 5860 5861 5862 5860 5859 5857 5857 5858 5858 5858 5859 5860 5861 5861 5862 5863 5864 5866 5867 5867 5868 5868 5869 5869 5870 5870 5870 5870 5870 5869 5869 5869 5868 5867 5866
5836 5840 5842 5843 5847 5850 5852 5854 5856 5857 5858 5858 5860 5860 5862 5863 5865 5864 5862 5861 5860 5860 5861 5862 5863 5863 5864 5865 5865 5867 5867 5868 5869 5869 5870 5870 5871 5871 5871 5871 5871 5871 5870 5870 5870 5869 5868 5867 5866
5835 5838 5841 5844 5846 5850 5852 5854 5856 5857 5859 5859 5860 5862 5863 5864 5866 5866 5866 5864 5863 5864 5864 5865 5866 5866 5867 5867 5868 5869 5870 5870 5871 5871 5872 5872 5872 5872 5872 5872 5871 5871 5871 5870 5869 5869 5868 5867 5865
5832 5838 5840 5843 5846 5850 5851 5854 5856 5856 5858 5860 5861 5863 5865 5865 5866 5866 5866 5867 5865 5865 5867 5868 5869 5869 5870 5870 5870 5871 5871 5872 5872 5873 5873 5873 5873 5873 5872 5872 5871 5871 5870 5870 5869 5868 5867 5866 5865
5828 5835 5838 5841 5845 5848 5849 5852 5855 5857 5859 5860 5861 5863 5865 5866 5867 5867 5868 5868 5868 5867 5868 5870 5871 5871 5872 5872 5872 5873 5873 5873 5873 5873 5873 5873 5873 5873 5872 5872 5871 5871 5870 5869 5868 5868 5867 5865 5864
5828 5832 5835 5838 5844 5845 5848 5851 5854 5856 5858 5860 5861 5863 5865 5866 5868 5868 5868 5869 5869 5870 5870 5871 5872 5873 5874 5874 5875 5875 5875 5875 5875 5874 5874 5874 5873 5873 5872 5872 5871 5870 5869 5868 5867 5866 5865 5864 5862
5826 5829 5833 5837 5841 5843 5846 5850 5851 5855 5858 5859 5861 5863 5865 5866 5867 5868 5870 5870 5871 5871 5872 5872 5873 5874 5875 5875 5875 5875 5876 5875 5875 5875 5874 5874 5873 5872 5871 5871 5870 5869 5868 5867 5865 5864 5863 5862 5860
5820 5826 5831 5835 5838 5841 5845 5847 5850 5853 5855 5858 5860 5862 5865 5865 5866 5867 5869 5870 5871 5872 5872 5873 5874 5875 5876 5876 5876 5876 5876 5876 5875 5875 5874 5873 5873 5872 5871 5870 5869 5868 5867 5865 5864 5862 5861 5859 5858
5818 5823 5828 5832 5835 5839 5842 5846 5848 5851 5853 5856 5858 5860 5863 5865 5865 5867 5868 5869 5870 5872 5873 5873 5874 5875 5875 5875 5875 5875 5876 5875 5875 5875 5874 5874 5873 5871 5870 5870 5869 5868 5866 5865 5863 5862 5860 5858 5856
5813 5818 5824 5827 5831 5836 5839 5843 5846 5849 5851 5853 5855 5858 5859 5863 5864 5866 5869 5870 5870 5872 5873 5873 5874 5874 5874 5874 5875 5875 5874 5874 5873 5873 5872 5872 5871 5871 5870 5869 5868 5866 5865 5864 5862 5860 5858 5856 5854
5807 5814 5819 5823 5827 5832 5837 5840 5842 5846 5848 5850 5852 5855 5857 5859 5862 5864 5866 5868 5870 5871 5871 5872 5872 5873 5873 5873 5873 5873 5873 5872 5872 5871 5870 5870 5869 5869 5868 5867 5866 5864 5863 5861 5860 5858 5855 5853 5851
5803 5809 5815 5820 5824 5829 5834 5836 5839 5842 5845 5847 5849 5852 5855 5858 5858 5861 5863 5865 5866 5868 5869 5869 5869 5870 5871 5871 5871 5870 5871 5870 5869 5869 5868 5867 5866 5866 5865 5864 5863 5862 5860 5858 5856 5854 5852 5849 5847
5798 5803 5811 5817 5822 5825 5829 5833 5835 5837 5840 5842 5846 5849 5851 5854 5855 5858 5860 5861 5863 5864 5865 5866 5866 5866 5867 5868 5868 5867 5866 5866 5866 5865 5864 5863 5862 5862 5861 5860 5859 5858 5856 5854 5852 5849 5847 5844 5841
5795 5802 5808 5812 5818 5821 5825 5828 5830 5834 5836 5838 5841 5844 5846 5849 5852 5853 5855 5857 5858 5860 5860 5861 5862 5862 5863 5863 5863 5863 5862 5862 5861 5861 5860 5859 5858 5857 5857 5855 5854 5853 5851 5849 5846 5843 5840 5838 5834
5792 5797 5800 5805 5810 5814 5820 5824 5826 5828 5833 5836 5837 5840 5841 5844 5847 5849 5850 5851 5852 5854 5855 5856 5856 5857 5858 5858 5859 5859 5858 5858 5856 5854 5853 5853 5853 5852 5851 5849 5848 5846 5844 5841 5839 5836 5833 5831 5827
5785 5790 5794 5799 5805 5809 5814 5818 5821 5824 5827 5831 5833 5835 5837 5839 5842 5844 5845 5846 5847 5849 5850 5850 5850 5851 5851 5852 5852 5852 5852 5852 5850 5850 5848 5846 5846 5845 5844 5842 5840 5838 5836 5834 5830 5827 5824 5821 5819
5779 5784 5789 5793 5798 5802 5807 5812 5813 5819 5822 5825 5828 5830 5833 5835 5837 5838 5840 5842 5843 5843 5844 5845 5844 5844 5845 5846 5846 5846 5845 5845 5843 5843 5842 5840 5838 5836 5835 5834 5831 5829 5828 5825 5822 5818 5815 5812 5809
5772 5777 5781 5786 5790 5794 5800 5802 5806 5812 5817 5820 5824 5825 5827 5829 5831 5832 5834 5835 5836 5837 5838 5839 5838 5839 5839 5838 5838 5839 5838 5838 5837 5836 5835 5833 5830 5828 5827 5825 5823 5821 5819 5816 5813 5809 5805 5801 5798
5765 5770 5774 5777 5781 5785 5792 5794 5799 5805 5811 5815 5817 5819 5821 5823 5825 5826 5827 5828 5828 5829 5830 5831 5831 5832 5831 5831 5831 5831 5830 5829 5828 5827 5826 5824 5822 5820 5817 5815 5813 5811 5809 5806 5802 5799 5795 5791 5786
5756 5763 5764 5767 5770 5777 5782 5787 5795 5800 5804 5808 5810 5812 5814 5815 5817 5819 5819 5821 5822 5822 5823 5823 5823 5823 5823 5822 5822 5822 5821 5821 5820 5818 5817 5815 5813 5811 5809 5806 5803 5800 5797 5794 5791 5787 5783 5778 5773
5753 5755 5758 5762 5768 5773 5777 5780 5787 5794 5797 5800 5802 5804 5806 5808 5809 5811 5812 5812 5814 5815 5815 5816 5816 5815 5815 5814 5814 5813 5813 5811 5810 5808 5806 5805 5802 5800 5798 5795 5792 5789 5785 5782 5778 5774 5770 5766 5762
5742 5746 5752 5756 5760 5762 5766 5773 5779 5784 5788 5792 5794 5796 5797 5798 5800 5802 5803 5805 5806 5806 5806 5807 5806 5806 5805 5805 5804 5803 5803 5802 5800 5798 5797 5795 5792 5790 5786 5783 5780 5776 5773 5769 5765 5762 5757 5753 5749
5735 5741 5744 5747 5750 5753 5757 5762 5770 5778 5782 5784 5786 5787 5788 5789 5791 5793 5795 5796 5797 5797 5796 5797 5797 5797 5797 5796 5795 5794 5793 5792 5790 5788 5786 5783 5781 5778 5774 5771 5768 5764 5759 5756 5752 5748 5744 5740 5736
5727 5729 5735 5738 5742 5746 5751 5756 5765 5769 5772 5775 5777 5778 5780 5781 5783 5785 5786 5787 5787 5787 5788 5788 5788 5788 5787 5786 5785 5784 5783 5781 5779 5777 5775 5772 5769 5765 5762 5758 5754 5750 5746 5742 5739 5735 5731 5727 5722
5715 5721 5725 5728 5737 5739 5740 5748 5754 5759 5762 5764 5767 5769 5770 5772 5774 5775 5775 5776 5776 5777 5777 5778 5777 5776 5775 5773 5772 5771 5770 5768 5766 5763 5761 5758 5755 5752 5748 5744 5740 5736 5733 5729 5726 5722 5717 5712 5707
Wind_Speed
22 20 19 17 17 12 13 10 10 9 7 7 7 9 9 8 5 6 8 8 8 1 6 11 11 17 15 13 13 10 8 6 6 7 8 4 5 5 5 5 6 6 7 7 7 8 8 9 9
22 21 20 19 18 16 13 12 11 11 10 11 13 11 9 9 7 9 9 11 13 10 9 8 11 10 10 13 11 11 12 9 8 11 9 5 4 4 4 3 4 5 5 6 8 8 10 10 12
25 23 21 21 19 20 17 14 12 12 11 12 14 16 13 14 13 16 12 16 18 14 9 10 11 12 11 8 8 10 14 9 6 1 2 2 3 4 4 5 5 6 6 7 8 9 9 10 11
27 24 22 23 21 18 17 16 13 12 13 12 13 15 13 14 14 17 18 16 17 18 14 10 9 8 7 4 4 4 10 5 4 3 2 2 2 3 4 4 4 5 5 7 7 8 9 10 11
30 26 24 21 20 20 18 17 14 13 13 13 12 14 12 12 12 16 16 20 18 17 16 17 14 12 8 6 4 6 6 4 3 2 3 4 4 3 4 4 4 6 7 8 9 10 11 11 11
31 28 25 24 22 20 19 18 16 15 13 12 13 12 12 11 10 13 14 17 17 17 18 17 15 14 14 13 13 12 11 9 8 7 6 5 3 4 5 6 7 7 8 8 9 9 10 11 12
33 31 28 27 24 22 21 19 18 16 14 14 12 13 12 11 8 10 12 14 15 15 15 15 15 15 14 13 12 11 10 9 7 6 5 5 4 5 5 5 6 6 8 9 9 10 11 12 13
34 32 28 26 25 24 22 20 18 17 15 14 13 11 10 9 7 7 8 11 13 13 13 12 12 12 12 11 11 10 9 8 7 6 6 6 6 6 6 7 7 8 8 9 10 11 12 13 14
37 34 31 28 25 24 23 21 19 18 16 14 13 11 9 8 8 5 6 7 10 11 10 10 11 11 10 10 11 10 9 8 8 7 7 7 7 8 8 9 9 10 11 11 12 13 14 15 15
39 37 33 30 28 27 24 22 20 18 16 14 12 11 9 8 7 7 4 5 6 9 9 8 7 8 8 8 8 7 7 7 7 7 7 8 8 8 9 9 10 11 12 14 15 16 16 17 18
41 37 35 34 30 28 25 23 20 19 17 16 14 12 11 9 7 6 6 5 5 5 6 6 6 6 7 7 7 7 6 6 6 6 6 7 8 9 10 11 12 13 13 15 16 17 18 19 20
40 40 37 34 33 30 28 25 22 21 18 16 14 13 11 10 9 6 5 4 3 5 5 4 5 5 6 5 6 6 7 8 8 8 8 8 9 10 11 12 13 13 14 14 15 17 18 19 20
43 42 38 37 35 31 29 27 24 22 21 18 16 14 13 12 11 9 7 6 5 5 5 4 3 3 2 3 4 5 7 8 8 9 8 9 9 10 11 12 12 13 13 14 15 15 16 17 19
43 42 40 39 35 34 31 28 26 24 22 20 18 16 14 14 13 11 10 9 7 7 6 4 3 3 2 3 4 5 7 9 9 9 10 11 11 12 12 12 12 13 13 14 15 15 16 17 18
45 43 43 40 37 35 33 30 26 25 22 20 18 16 15 16 14 13 12 11 10 8 9 7 7 7 7 7 7 8 8 9 9 10 11 12 14 14 15 14 14 15 16 17 17 18 20 20 20
47 45 45 42 39 36 33 32 30 26 24 22 20 19 17 16 13 14 15 13 13 13 12 11 12 13 12 12 12 12 12 13 12 13 14 14 15 16 18 19 19 19 20 21 22 22 23 25 26
49 47 46 43 40 37 35 33 30 28 26 24 22 20 19 17 16 15 15 15 16 17 17 17 17 18 17 17 17 17 16 17 16 17 17 17 19 20 20 21 22 23 24 25 26 27 28 29 30
51 50 46 41 40 38 36 33 32 29 27 26 24 22 20 19 18 18 18 19 18 19 20 20 21 22 22 21 21 21 22 22 21 21 21 22 23 23 24 25 26 27 28 29 29 31 32 34 35
50 47 44 43 40 40 38 36 33 31 29 28 25 23 22 21 20 21 21 22 22 23 23 23 23 24 23 25 25 25 25 26 26 26 27 28 29 30 29 30 31 32 33 34 35 36 38 38 41
47 44 46 46 45 43 41 37 37 33 31 29 28 26 25 23 23 24 24 24 25 26 27 26 27 27 27 28 27 27 28 29 30 31 33 33 34 34 35 35 36 37 38 39 40 42 43 44 46
47 47 49 48 46 44 42 40 39 36 34 32 30 28 27 26 25 25 25 26 26 27 28 29 30 31 31 31 30 31 32 33 35 35 37 37 38 38 39 40 41 42 43 44 45 47 48 50 51
46 47 48 49 46 46 45 43 44 40 37 35 32 30 29 28 28 27 27 27 27 28 30 31 32 34 34 34 34 35 35 35 37 38 40 40 41 42 42 43 45 46 47 48 50 52 53 55 56
48 46 46 47 47 47 46 46 46 41 39 35 33 32 31 30 29 29 30 30 29 30 30 32 33 34 35 36 37 37 38 39 39 40 41 42 44 45 47 48 49 50 51 52 54 55 57 59 60
48 46 47 47 48 50 48 47 47 43 39 36 35 34 33 32 32 32 32 33 32 32 32 33 33 34 35 36 37 38 39 40 41 42 43 45 46 47 49 50 52 53 54 55 57 59 60 62 64
49 48 50 51 51 53 50 47 45 42 39 38 37 37 36 35 34 34 34 35 34 33 34 35 35 36 37 38 39 39 40 41 42 43 45 47 48 50 52 53 54 55 57 59 60 62 64 65 67
49 49 51 50 50 49 47 47 47 43 41 40 39 38 38 37 36 36 36 36 35 35 36 37 38 39 40 41 41 42 43 44 45 47 49 50 51 52 54 56 58 59 60 62 63 63 64 64 66
50 49 48 47 49 49 50 48 47 45 42 41 39 38 38 38 38 37 37 37 36 37 37 39 40 41 41 42 43 44 45 47 48 50 51 52 53 55 57 58 60 61 63 64 65 66 66 67 67
48 46 46 46 48 49 50 50 48 44 39 39 38 37 37 37 37 36 36 36 36 38 39 40 41 42 42 44 45 46 47 49 50 52 54 56 57 58 59 60 60 60 62 64 65 65 63 61 61
48 48 48 48 47 45 46 49 44 40 39 40 39 38 37 37 37 37 37 38 39 39 40 40 42 44 45 47 48 49 50 51 53 54 54 55 56 57 56 58 59 61 62 62 61 61 61 62 64
46 45 44 45 45 45 45 48 47 42 40 39 38 37 37 38 40 41 41 43 43 43 44 46 48 49 50 51 52 53 54 54 54 54 54 54 55 58 61 62 62 63 63 65 67 67 71 73 75
Wind_Direction
178 174 172 167 154 161 140 138 128 124 122 104 98 88 79 80 74 69 42 26 10 307 204 189 200 207 203 197 201 215 228 212 206 170 178 148 166 201 230 248 265 285 300 304 303 295 306 308 316
178 177 175 170 164 155 151 145 130 119 111 98 90 88 91 90 86 80 60 46 57 81 107 133 142 163 203 210 215 226 219 216 203 186 173 177 201 229 250 264 290 302 307 312 309 315 321 324 327
179 178 178 172 170 163 160 150 140 127 111 95 86 85 80 84 84 84 76 75 79 69 96 112 140 153 159 181 201 207 204 190 225 309 144 208 254 268 271 287 305 311 323 325 327 327 326 329 330
180 178 179 175 170 165 158 150 145 134 118 106 94 90 89 84 85 79 83 80 83 84 94 87 114 125 145 170 249 294 126 162 218 213 197 195 256 279 298 317 341 336 332 334 337 340 340 333 332
182 179 177 171 170 168 160 156 149 141 129 119 109 100 91 87 85 85 82 86 83 88 91 96 108 115 115 108 92 67 78 80 73 78 74 63 47 31 19 13 17 359 353 342 339 341 338 335 342
182 179 174 168 171 169 167 162 157 151 141 130 120 110 101 94 90 91 88 86 85 84 86 89 91 93 99 101 97 95 95 94 96 91 81 72 52 25 1 353 356 353 350 351 353 350 346 341 342
182 177 174 166 165 166 165 163 157 151 147 138 133 122 114 103 92 88 93 89 87 85 84 86 89 92 95 97 97 98 98 96 93 80 67 57 36 18 3 359 355 354 348 342 343 343 342 342 341
182 179 170 167 162 166 164 164 164 157 153 147 141 134 129 122 112 101 94 96 92 88 85 86 90 91 92 91 88 84 78 76 74 65 52 38 26 17 8 359 354 348 344 343 338 332 331 330 328
183 181 175 171 167 170 169 169 167 163 162 161 156 149 146 139 137 129 121 107 104 96 88 84 84 85 84 83 81 75 71 66 56 46 36 26 18 12 8 1 352 344 339 334 328 328 327 325 323
183 181 179 174 176 176 175 176 175 171 173 174 173 166 165 156 150 141 137 117 111 106 101 86 81 75 73 73 73 67 60 51 42 33 23 10 2 355 350 344 337 333 332 328 327 324 322 321 321
185 181 182 180 179 176 175 178 175 172 174 174 175 171 169 165 165 162 157 149 135 115 106 104 97 87 84 77 70 63 55 42 27 18 8 356 346 342 337 332 331 329 325 323 321 320 318 316 316
186 186 185 184 182 181 179 179 178 179 178 178 178 179 176 174 176 179 181 165 151 135 129 122 117 107 95 81 67 49 35 22 10 2 356 351 345 342 341 336 332 329 328 326 326 327 326 326 324
189 188 188 189 185 185 186 184 184 187 188 187 186 190 191 189 188 181 189 177 169 165 149 141 142 132 83 37 26 20 15 10 2 353 348 346 342 339 337 337 335 334 337 337 334 332 332 330 329
191 191 191 191 188 189 188 189 190 193 194 195 195 197 201 204 201 204 198 195 187 194 195 199 212 228 282 311 331 344 349 350 347 339 332 327 329 330 330 330 330 331 333 333 332 334 335 334 333
190 193 194 192 191 192 192 190 193 195 196 196 198 199 201 212 211 213 222 221 214 214 224 233 249 256 267 281 293 303 311 315 320 318 316 312 312 312 312 310 311 312 315 316 316 319 321 322 322
193 196 197 193 193 195 195 195 198 200 202 203 206 212 211 218 219 220 228 228 235 236 240 243 248 255 260 268 275 281 287 291 298 300 303 303 302 300 303 304 305 306 307 308 309 312 313 315 316
197 199 200 196 196 198 199 202 201 203 208 211 214 218 222 226 229 233 237 236 236 239 242 244 249 256 260 262 268 276 278 278 284 288 291 292 294 297 299 300 302 303 304 305 307 309 309 310 310
200 203 200 199 200 202 203 206 209 206 215 220 223 227 233 236 243 241 242 243 242 246 247 249 251 255 263 270 272 274 273 274 280 283 283 285 286 290 294 297 299 300 301 302 304 304 305 306 304
204 206 203 204 204 208 209 208 212 213 219 226 231 235 242 245 249 250 249 249 249 249 251 252 255 258 261 263 266 270 272 276 279 279 281 283 286 291 294 295 296 298 299 300 301 301 301 301 301
208 209 207 206 209 212 211 212 219 218 223 229 233 238 244 250 255 256 256 252 252 254 256 257 258 260 261 263 265 268 271 273 275 279 281 285 289 291 292 293 294 294 294 294 295 296 297 297 297
209 211 211 212 214 216 215 215 222 223 228 233 238 241 247 253 254 255 255 257 257 259 261 261 262 263 263 263 264 265 267 269 273 276 279 282 285 287 289 290 290 291 291 292 293 293 295 296 299
213 214 216 216 219 221 219 219 223 226 229 236 242 245 250 255 257 258 258 256 255 256 259 261 262 265 267 267 267 268 269 269 270 273 276 278 281 282 283 284 286 287 289 291 292 294 296 298 299
217 217 220 222 224 226 224 228 227 230 233 237 243 249 254 257 258 258 258 258 257 257 258 259 259 261 263 265 266 267 269 271 273 274 276 278 280 282 285 286 288 290 290 291 292 293 294 295 295
218 220 223 225 228 229 228 232 231 231 240 242 245 249 252 256 256 257 257 256 256 258 260 260 260 261 262 263 265 266 267 269 271 274 276 278 280 282 284 285 287 288 289 290 291 292 293 293 294
219 221 225 227 229 231 230 235 236 236 242 246 249 252 253 253 253 253 254 254 256 257 259 261 262 263 263 265 267 269 271 272 274 275 276 278 280 281 283 286 287 287 289 290 291 292 291 292 293
225 225 230 232 235 238 239 239 241 242 244 246 249 251 253 254 253 254 254 255 256 258 259 261 264 265 266 267 269 271 273 274 275 276 278 280 282 284 286 287 288 289 289 289 289 290 290 292 294
224 226 231 235 238 238 240 239 241 242 244 247 249 251 253 254 255 256 258 259 260 261 261 262 263 265 267 269 270 272 275 277 278 280 282 283 285 286 286 287 288 288 289 290 291 292 292 292 293
226 228 231 233 237 239 242 241 243 245 248 249 250 251 251 253 255 256 257 258 258 259 260 262 264 266 269 270 272 274 276 278 281 283 283 283 284 284 285 285 287 288 289 289 288 289 292 293 292
227 229 231 233 236 241 246 247 243 246 246 247 247 248 250 253 257 260 262 262 262 263 265 266 268 269 270 273 276 278 280 281 282 283 284 285 285 286 288 288 289 288 289 290 290 290 291 292 294
229 231 231 236 237 242 247 246 248 243 244 247 251 255 256 257 258 261 265 267 270 272 273 275 276 277 280 282 284 284 285 286 286 286 287 287 288 287 287 289 289 289 290 290 289 288 289 290 291